Theta_e
295 296 297 297 296 296 297 298 299 301 300 301 303 306 308 310 311 312 311 310 306 306 311 311 310 311 310 309 308 308 308 309 309 310 310 308 308 310 312 312 311 311 312 312 314 317 319 320 323 323 321 321 319 319 319 318 321 326 329 325 323 326 327 326 326 324 321 319 318 320 318 320 326 324 322 326 327 327 331 332 333 331 326 327 330 328 325
295 296 297 297 296 296 297 299 300 301 301 301 302 306 309 309 309 310 311 310 308 310 313 313 313 313 311 310 310 310 310 310 310 311 311 309 310 312 312 312 311 310 312 312 312 316 320 320 320 322 323 321 319 319 320 320 323 325 326 325 324 323 323 326 328 324 319 319 323 325 322 322 326 325 322 323 326 331 329 326 332 332 323 326 334 329 324
296 296 297 296 296 297 298 299 300 301 302 302 302 306 309 309 309 311 312 311 310 310 313 314 315 316 314 314 315 313 312 311 309 311 311 309 311 313 312 311 311 311 313 313 311 313 320 321 320 321 323 321 318 319 320 320 322 324 323 323 325 325 324 331 334 329 324 323 325 328 326 323 324 324 322 322 326 331 325 322 334 334 321 323 331 327 322
296 297 296 296 297 298 298 299 300 302 303 302 302 306 309 309 311 312 312 312 311 310 312 312 315 318 316 316 318 316 314 312 309 310 311 310 310 311 311 310 312 314 316 316 314 313 317 321 321 322 323 321 318 318 320 321 321 323 321 320 326 328 324 326 329 329 328 326 324 325 324 323 323 322 321 321 322 325 327 331 336 330 322 323 326 324 322
296 296 295 296 297 298 299 300 301 302 303 302 303 307 309 310 312 313 313 313 312 312 312 312 315 317 315 316 317 314 315 314 310 309 310 309 310 312 312 310 311 314 315 316 315 314 317 319 319 321 321 321 319 316 319 323 322 321 319 318 326 332 326 322 322 321 322 322 321 321 321 321 321 319 319 320 319 322 328 331 327 324 326 327 323 321 320
296 296 295 296 297 298 299 300 301 303 303 303 305 309 309 310 312 311 312 314 314 314 314 313 314 314 314 317 317 315 316 315 312 311 310 309 311 314 314 311 311 311 313 318 316 315 320 321 319 321 321 322 324 319 318 321 319 320 321 320 326 331 327 321 320 320 320 319 318 318 318 317 317 317 317 317 317 319 321 322 321 321 326 326 320 317 316
296 295 296 297 298 299 300 301 302 303 303 304 307 309 309 309 311 311 311 313 313 314 313 312 314 316 315 316 316 315 316 314 311 312 315 315 313 313 313 311 311 311 315 323 322 318 322 322 317 319 320 322 325 323 319 319 317 320 326 324 323 326 324 320 320 319 319 317 316 315 315 315 315 315 314 314 314 315 316 318 318 318 319 318 315 314 312
295 295 296 297 299 300 301 302 303 304 304 306 308 308 309 310 311 311 311 312 312 311 311 312 315 317 316 315 313 313 315 314 312 312 314 317 314 313 313 311 311 311 313 319 321 319 323 322 316 317 319 320 322 322 319 318 316 319 326 325 321 322 322 320 319 318 318 316 315 314 313 313 314 314 313 313 314 314 313 314 315 315 315 313 312 312 310
295 295 296 298 300 301 301 302 304 304 305 307 307 308 309 310 310 311 312 314 314 312 312 313 313 313 315 316 313 313 314 313 312 310 310 312 313 313 313 312 312 311 311 313 314 314 317 317 312 313 317 316 317 318 317 318 320 320 321 323 323 323 322 320 319 318 317 315 314 314 314 314 314 314 312 312 313 313 312 311 312 314 315 313 313 312 310
295 295 297 298 300 301 301 302 304 304 305 307 307 307 309 310 311 312 313 314 315 312 311 313 312 312 316 316 312 312 313 312 312 311 309 309 310 310 311 312 314 313 312 312 311 310 310 311 309 309 311 310 310 312 313 316 321 322 322 323 324 323 321 319 320 320 317 315 314 316 318 320 317 314 313 312 311 311 310 310 310 311 312 312 313 311 308
294 295 297 299 300 301 301 302 304 305 307 308 307 307 309 311 312 312 312 315 316 311 308 313 317 315 314 313 310 311 312 311 312 313 311 309 309 309 309 311 315 315 312 309 309 309 310 310 309 309 310 310 309 310 311 313 315 319 323 324 322 321 322 320 321 322 319 315 315 318 320 320 316 312 312 311 310 309 310 310 309 309 309 309 309 308 307
294 295 297 299 300 301 301 301 302 304 307 308 305 305 309 311 312 312 311 314 317 313 310 312 315 312 309 308 308 310 310 310 310 311 311 310 309 309 308 310 315 314 309 308 310 310 310 310 311 311 310 309 309 310 313 314 314 313 317 322 325 325 323 321 321 321 319 315 316 319 319 315 312 310 309 309 308 308 308 308 308 308 308 307 307 306 305
294 296 298 299 300 300 300 301 301 302 305 306 305 305 308 310 313 313 311 313 316 315 312 310 309 308 307 306 307 308 306 306 308 309 309 309 308 308 308 309 312 310 307 308 309 308 310 313 316 315 311 310 311 312 314 315 315 314 314 318 324 326 323 321 319 317 317 316 316 318 316 312 311 311 310 309 309 309 309 309 308 307 307 307 307 306 305
295 297 298 300 300 300 300 300 301 302 303 305 305 305 309 311 312 312 311 312 315 313 310 309 310 310 309 307 308 309 306 305 307 308 308 308 307 308 308 308 309 308 307 308 308 309 313 317 317 314 313 314 313 311 313 315 315 317 317 316 319 324 324 322 318 315 314 315 315 314 313 312 311 311 310 310 310 310 310 310 308 306 307 307 307 306 305
296 297 299 300 301 300 300 300 301 302 303 305 306 307 310 311 309 309 309 310 314 313 308 308 310 309 308 307 308 312 311 310 310 308 307 308 307 307 308 307 307 307 307 308 309 313 317 316 315 315 315 315 312 310 315 318 315 314 316 316 318 321 321 322 319 314 312 313 313 313 314 313 312 311 310 309 310 310 309 309 308 306 306 307 307 306 306
297 298 300 301 300 300 300 300 300 301 303 306 309 310 311 309 307 308 308 309 312 311 307 306 307 306 306 306 307 309 311 313 314 311 309 309 307 307 307 307 307 307 307 308 311 317 319 316 315 317 317 315 314 313 315 318 316 313 315 317 318 318 320 322 320 315 313 314 314 314 314 313 311 309 308 308 309 310 309 310 309 306 305 306 306 305 305
297 299 300 301 300 300 300 300 300 302 304 307 310 310 308 307 307 308 309 309 309 307 305 307 306 305 307 308 307 307 308 311 313 312 313 313 308 306 307 307 307 308 308 311 316 321 321 317 317 318 314 312 314 315 314 316 316 315 316 319 320 320 322 322 319 316 314 314 313 312 312 310 308 307 307 308 309 309 311 314 311 305 303 305 304 303 303
297 299 300 301 300 300 300 300 301 303 306 308 308 307 306 306 307 308 309 310 309 305 305 307 306 306 307 308 307 307 308 309 311 313 316 314 308 306 308 308 309 308 309 315 321 322 318 315 316 317 314 311 314 316 314 315 316 313 312 316 317 317 317 317 315 314 312 311 310 310 310 308 307 307 307 307 309 311 313 313 308 303 303 303 302 302 302
298 299 301 301 300 299 300 300 302 305 307 307 306 306 306 306 307 307 308 307 306 304 305 307 306 306 307 307 308 308 309 310 311 315 320 316 308 308 309 308 310 309 310 316 320 318 316 315 314 315 315 313 313 314 312 313 314 312 312 314 316 314 314 315 314 312 311 310 310 310 310 307 306 307 307 307 310 312 310 306 303 302 302 302 301 301 301
298 300 301 300 299 300 300 301 303 305 306 306 305 305 306 306 306 307 306 305 304 304 305 305 305 306 306 306 308 308 309 310 310 313 318 315 310 311 313 312 312 311 313 317 316 313 316 316 312 313 315 314 312 312 311 309 309 309 309 311 311 310 311 313 311 310 311 311 310 311 311 308 306 307 307 307 308 308 304 302 302 302 302 301 301 301 301
299 301 301 300 299 300 300 302 304 305 305 306 306 306 306 305 306 306 305 304 304 304 304 304 305 305 305 306 307 308 309 310 310 311 313 311 310 314 316 314 313 312 313 317 315 312 314 314 312 311 313 313 314 313 311 311 309 307 307 308 307 307 309 311 308 307 308 309 309 309 308 306 306 307 307 305 304 303 302 302 302 301 301 301 301 301 301
300 301 301 300 299 301 302 303 304 305 306 306 306 306 305 305 305 305 304 304 304 303 303 304 304 304 305 305 306 307 309 310 310 310 310 309 309 312 313 312 312 311 311 313 315 313 312 313 314 313 312 313 313 311 310 312 312 308 307 308 308 306 307 308 307 306 306 307 307 306 305 304 305 305 304 303 303 302 302 302 302 301 302 301 301 301 301
300 301 301 300 300 301 303 303 304 305 306 306 306 306 304 304 304 304 304 304 304 303 304 304 304 304 305 305 307 308 309 310 311 310 310 310 310 311 311 310 311 310 309 311 313 312 311 313 313 313 312 312 311 309 308 310 310 308 308 308 308 306 306 307 307 306 306 306 306 305 304 304 304 303 303 303 302 302 302 302 302 302 301 301 301 301 300
301 301 300 299 300 301 301 302 304 305 306 306 306 305 304 304 304 304 304 304 304 304 304 304 304 304 305 305 307 309 309 310 310 309 309 310 310 311 310 310 310 310 309 310 309 309 310 311 309 310 311 310 310 310 309 308 308 308 308 309 309 307 306 307 307 306 306 306 305 305 304 304 303 303 303 302 302 302 302 302 301 301 301 301 301 300 300
301 301 300 299 300 301 300 302 305 306 307 307 306 305 305 305 305 305 305 304 304 304 304 304 304 304 305 306 307 308 309 310 310 310 309 309 309 310 310 309 309 310 309 310 309 308 309 309 309 310 310 308 309 310 309 308 309 309 308 310 310 307 306 306 306 306 306 305 305 304 304 303 303 302 302 302 302 302 302 301 301 301 301 301 301 300 301
301 300 299 299 300 300 300 303 305 306 307 307 307 306 306 306 306 306 305 304 303 304 304 305 304 304 305 306 307 308 309 309 309 309 309 309 309 309 310 309 310 309 308 308 308 307 307 308 309 310 309 307 308 309 308 307 308 309 309 309 308 307 306 306 305 305 305 305 304 303 303 303 303 302 302 302 301 301 301 301 301 301 300 300 300 300 300
301 299 298 299 300 299 301 304 306 306 307 307 307 307 307 307 307 306 304 304 305 305 304 305 304 304 305 306 307 308 309 308 308 308 308 309 309 310 310 310 310 308 307 307 307 306 306 307 308 308 307 306 306 306 306 306 307 308 308 306 305 305 305 305 305 305 305 304 304 303 303 303 303 302 302 301 301 301 301 301 301 300 300 300 300 299 298
300 298 298 300 300 299 301 304 305 305 306 306 306 307 307 307 306 306 304 304 306 305 304 304 304 305 306 306 306 307 308 307 307 307 308 308 309 309 309 309 308 308 307 307 307 306 306 306 307 306 306 306 306 306 306 306 307 307 307 305 304 304 304 305 305 305 305 304 304 303 303 302 302 302 302 301 301 301 301 301 301 300 299 299 299 299 298
298 297 298 300 300 300 302 305 305 305 306 306 306 306 307 306 306 306 305 304 304 304 304 305 305 305 305 306 306 306 306 306 306 306 307 308 307 307 307 307 307 307 307 306 306 305 305 306 306 306 306 306 306 307 307 307 306 306 305 304 304 304 304 305 305 304 304 304 304 303 303 303 302 302 302 302 302 302 301 301 301 300 300 300 299 299 299
296 297 298 300 300 300 303 305 304 304 305 305 305 306 306 305 305 306 305 304 304 304 304 306 307 306 305 306 306 305 305 306 305 305 307 307 307 307 307 306 306 306 306 306 305 305 305 305 304 305 306 305 306 308 307 305 305 305 304 304 305 305 304 305 304 304 304 304 303 303 303 303 303 303 303 302 302 302 301 301 301 300 300 300 300 299 299
296 296 298 300 300 301 303 304 303 304 305 305 305 305 305 305 305 305 305 304 304 304 304 305 306 305 305 306 306 306 305 305 305 305 306 306 306 306 306 306 306 305 305 305 305 304 304 304 303 304 305 304 305 306 306 305 305 304 303 303 304 304 304 304 304 304 304 303 303 303 303 303 303 303 303 303 302 301 301 301 301 300 300 300 300 300 299
295 296 297 299 300 301 301 302 302 304 305 305 306 306 306 304 304 305 306 304 304 304 304 304 304 304 304 305 306 306 305 305 305 305 305 305 305 306 305 305 305 305 304 305 304 304 304 304 303 304 304 304 304 306 306 305 305 304 303 303 304 304 304 304 303 303 303 302 302 302 302 302 303 303 303 302 302 301 301 301 301 300 300 300 300 300 299
295 295 296 298 299 300 300 301 303 305 305 305 306 306 305 304 304 306 306 305 304 304 304 304 304 305 304 305 306 305 305 305 305 305 305 305 305 305 305 305 305 305 304 304 304 304 304 303 303 304 304 303 304 306 306 304 303 303 303 303 304 303 303 303 303 302 302 302 301 300 300 300 301 301 301 302 302 301 301 301 301 301 300 300 300 300 299
296 296 296 297 299 300 300 301 304 306 305 305 305 304 303 304 305 306 305 304 304 304 303 303 306 306 305 306 307 306 305 305 305 304 304 305 305 305 305 304 304 304 304 304 304 304 303 303 303 304 304 303 304 305 304 303 303 303 303 303 303 303 303 303 302 302 302 301 301 300 300 300 300 300 300 301 301 301 300 300 300 300 300 300 299 299 299
296 296 297 297 298 299 301 303 306 306 305 304 303 303 304 304 305 305 306 305 304 304 302 303 307 309 308 307 307 306 305 305 305 305 305 305 304 304 304 304 304 304 304 304 303 303 302 303 303 303 303 303 304 304 303 302 302 303 303 303 303 303 302 302 302 302 301 301 301 300 300 300 300 300 300 300 300 300 300 300 299 299 300 300 299 299 300
296 297 297 298 298 300 302 304 306 306 305 303 302 302 304 304 304 305 306 305 305 305 303 303 307 310 310 308 306 305 305 305 305 305 305 305 305 304 304 305 305 304 303 303 304 303 303 303 304 305 305 305 304 302 302 302 303 303 303 303 303 303 303 303 302 302 301 301 301 300 301 301 300 300 301 301 301 301 300 300 300 300 300 300 300 300 300
296 298 300 301 302 303 305 306 306 306 305 303 301 302 304 304 304 305 306 306 306 305 303 304 307 308 308 306 304 304 305 306 305 305 305 305 304 304 304 305 305 305 305 305 305 304 303 303 306 307 306 304 303 301 302 303 303 303 303 303 303 303 303 302 302 302 301 301 301 301 301 300 300 301 301 301 300 301 301 300 301 301 300 300 301 300 300
298 301 303 304 304 305 305 305 304 303 302 302 302 303 304 304 304 304 304 305 306 305 304 306 306 305 305 306 306 305 305 305 305 305 305 304 304 304 304 304 305 307 308 306 304 304 303 304 306 307 303 301 301 301 301 302 303 302 302 302 302 302 302 302 302 302 302 301 302 301 301 301 301 301 301 301 300 300 301 300 300 300 300 300 300 300 300
303 305 305 305 304 304 305 304 303 301 301 302 302 303 304 304 305 305 303 303 304 305 305 306 305 303 305 307 307 306 304 304 305 306 306 305 304 305 305 304 305 307 308 306 304 304 304 304 307 307 303 300 300 301 301 301 302 302 302 302 302 302 302 302 302 302 302 302 302 302 301 301 301 301 301 301 300 300 300 300 300 300 300 300 300 300 300
306 306 305 303 303 303 303 303 302 302 303 304 303 303 303 304 304 304 304 304 304 305 305 305 305 304 305 306 306 306 305 305 307 308 307 305 305 305 305 304 304 307 307 305 303 304 305 305 306 306 303 300 300 301 301 301 301 301 301 302 301 301 302 302 302 302 302 301 302 302 301 301 301 301 300 300 300 300 300 300 300 300 300 299 299 299 300
305 304 303 302 301 301 302 302 303 303 303 303 303 303 304 303 303 303 304 306 306 305 305 305 305 305 305 306 306 305 305 305 305 305 304 304 303 304 305 303 302 305 306 303 302 305 307 306 304 304 303 301 301 301 301 301 301 301 301 301 301 301 301 301 301 301 301 300 300 301 301 301 300 300 300 300 300 300 300 300 300 300 300 300 299 299 299
303 303 302 301 301 302 302 303 303 302 302 302 303 303 304 304 303 303 304 305 306 305 305 305 305 304 305 305 304 304 305 304 303 304 305 304 302 303 305 304 303 304 304 303 303 306 306 304 303 303 302 301 300 301 301 301 301 301 301 301 301 300 300 300 300 300 301 300 300 300 300 300 300 300 299 300 300 299 300 300 299 299 299 299 299 299 299
302 302 302 302 302 303 303 302 301 301 302 304 304 303 303 303 304 304 303 304 304 305 305 305 304 305 305 304 303 304 304 304 303 304 305 304 303 304 305 305 305 304 303 303 304 305 304 304 305 304 302 301 301 301 301 301 301 301 300 300 300 300 300 300 300 300 300 300 300 300 300 299 299 299 299 299 299 299 300 299 299 299 299 299 299 299 299
302 303 303 302 302 302 302 302 301 300 302 303 304 304 303 303 304 306 306 305 304 305 305 304 304 305 305 304 304 304 304 303 303 303 303 302 303 304 305 305 305 303 301 303 304 305 305 306 305 303 301 300 301 301 301 300 301 301 300 300 300 300 300 300 300 300 300 300 300 300 299 299 299 299 299 299 299 299 299 299 299 299 299 299 299 299 299
303 302 302 301 300 300 301 301 301 300 302 303 304 307 309 308 309 310 310 306 304 305 305 304 304 305 304 303 304 304 303 303 304 303 301 302 303 304 304 305 304 303 303 304 304 304 306 306 303 300 300 301 301 301 301 301 300 300 300 300 300 300 300 300 300 300 300 299 299 299 299 299 299 299 299 299 299 299 299 299 299 299 299 299 299 299 299
303 301 301 301 301 301 300 301 301 303 303 302 303 305 307 307 306 307 306 304 304 305 305 304 304 304 303 303 304 303 302 303 304 303 303 305 305 303 302 302 303 304 304 304 303 305 308 306 301 299 301 302 301 301 301 301 300 301 300 300 300 300 300 300 300 300 299 299 299 299 299 299 299 299 299 299 299 299 299 299 299 299 299 299 299 299 299
302 300 300 301 302 301 300 300 302 303 302 301 301 302 303 303 303 303 304 304 305 306 305 304 304 304 303 303 304 303 302 303 304 303 304 306 306 303 303 303 303 304 303 303 305 308 307 303 300 300 302 301 301 301 301 301 300 301 300 300 300 300 300 300 300 300 299 299 299 299 299 299 299 299 299 299 299 299 299 299 299 299 299 299 298 299 299
301 300 300 301 301 301 301 301 302 301 300 301 301 301 301 302 302 303 304 304 305 305 304 303 304 304 303 303 304 303 302 303 303 303 303 304 304 303 304 304 304 304 305 308 312 311 306 301 300 301 302 301 301 301 301 300 301 301 300 300 300 300 300 300 300 299 299 299 299 299 299 299 299 299 298 299 299 299 299 300 299 299 299 299 299 299 299
302 301 301 300 300 300 300 300 301 301 301 301 302 302 302 302 303 304 305 305 305 305 304 303 304 305 303 303 305 306 304 303 304 304 304 304 304 304 304 304 302 303 307 310 310 307 303 301 301 302 302 301 301 301 301 301 301 300 300 300 300 300 300 300 299 300 300 299 299 299 299 299 299 298 298 299 299 299 299 299 299 299 299 299 299 300 300
302 301 300 300 301 302 301 300 301 303 303 302 302 303 304 304 304 305 305 305 304 304 304 303 304 304 303 303 305 305 303 303 304 304 304 304 304 303 302 303 305 308 309 307 304 302 301 302 302 302 301 301 301 301 301 301 301 301 300 300 300 300 300 300 299 300 299 299 299 299 298 298 299 299 298 298 298 298 298 299 299 299 299 299 299 299 299
301 300 300 300 302 303 302 301 302 304 304 303 303 304 305 304 304 305 305 304 304 305 304 303 303 304 305 305 305 303 302 302 303 304 305 305 305 303 304 307 309 310 307 304 302 302 302 302 302 302 302 302 301 301 301 301 301 301 300 300 300 300 300 300 300 299 299 299 299 299 298 298 299 299 298 298 298 298 298 299 299 299 299 299 299 299 299
300 300 300 300 300 301 301 301 301 301 302 303 304 305 304 304 304 304 304 305 305 304 303 302 303 305 306 305 303 302 303 303 303 303 304 304 302 303 307 310 309 305 303 302 301 302 302 302 302 302 302 301 301 301 301 301 301 301 300 300 300 300 300 300 300 299 299 299 299 299 299 299 298 298 298 298 298 298 298 299 299 299 299 299 299 299 299
Wind_Speed
4 5 7 10 9 6 6 6 6 5 3 1 3 2 2 1 2 7 15 19 15 11 3 2 2 2 4 6 10 13 9 5 5 5 6 4 2 3 3 3 4 4 3 4 5 6 4 4 4 3 3 4 3 2 3 6 5 4 2 1 2 2 3 4 1 1 4 5 8 11 10 7 7 5 4 3 2 1 4 5 3 3 2 1 4 3 2
6 6 8 9 8 6 5 6 5 4 3 1 3 3 2 1 2 6 15 21 13 5 2 1 2 3 4 5 10 14 11 5 3 4 5 5 2 2 3 3 3 4 4 4 6 5 4 3 3 4 3 2 3 7 10 9 5 3 1 1 0 2 2 3 3 1 1 2 3 6 8 6 4 3 5 5 5 3 2 1 3 4 2 2 5 2 2
6 7 8 7 6 7 6 5 4 3 3 1 3 3 3 3 2 2 12 20 14 5 2 1 2 3 4 5 7 9 7 2 5 6 5 7 4 3 3 4 4 5 5 6 8 7 4 2 2 3 3 2 4 9 14 11 6 6 5 2 2 3 2 2 4 4 4 3 2 2 2 3 2 3 7 7 6 5 1 1 3 3 1 3 4 3 4
6 8 8 4 5 6 5 5 5 3 2 2 5 4 2 2 1 1 6 13 12 9 8 5 3 3 2 4 4 1 1 2 8 9 6 8 7 4 4 5 5 6 6 6 7 8 6 4 3 3 3 1 3 7 12 11 8 10 12 9 4 4 4 3 5 5 4 5 3 2 2 4 3 4 8 8 7 5 3 3 2 3 3 3 2 4 8
7 8 6 3 4 5 5 6 5 3 1 5 7 4 3 1 1 2 2 4 6 7 10 7 4 4 2 3 3 2 2 2 6 7 4 7 8 5 4 6 5 4 4 4 4 6 7 6 5 3 3 1 3 7 11 10 9 10 11 10 5 5 4 4 7 9 5 5 5 5 7 7 6 6 8 10 9 8 7 4 1 4 5 2 1 6 8
7 7 4 3 4 6 6 6 5 4 3 9 8 4 3 1 2 1 1 1 3 3 6 5 4 5 4 2 2 2 3 2 2 2 3 6 7 5 4 7 7 4 3 4 3 4 6 6 4 2 3 2 3 7 7 6 8 9 6 7 5 6 3 3 6 10 9 8 9 11 12 10 9 10 10 10 11 11 9 6 2 3 4 4 7 10 8
8 6 4 3 4 5 7 7 6 2 8 12 8 5 2 1 3 2 2 1 3 4 4 3 2 4 4 2 2 2 3 2 1 1 3 5 7 6 4 6 10 10 6 5 3 3 3 2 2 1 3 3 2 4 3 4 6 6 4 4 3 4 3 2 6 11 9 9 9 11 12 11 11 12 11 10 11 12 10 9 8 9 9 8 12 13 9
7 4 3 3 4 6 7 7 5 5 12 11 8 7 3 2 3 4 4 4 4 4 4 2 1 2 3 2 2 1 2 2 1 3 4 1 4 6 6 6 10 13 11 9 5 2 5 5 2 3 3 2 2 2 1 0 4 4 3 2 2 4 2 2 4 8 5 6 10 10 12 14 13 12 10 8 9 10 10 8 8 9 10 10 12 11 7
6 2 3 4 5 6 7 7 5 9 12 8 7 7 1 4 4 4 4 3 3 3 3 1 0 3 2 1 1 2 1 1 2 5 8 6 3 4 7 7 8 10 12 11 7 4 5 6 5 6 5 1 1 0 3 5 2 3 2 1 2 4 3 2 3 5 2 3 8 9 11 13 13 12 11 10 8 7 7 6 6 5 6 8 8 6 3
4 3 4 4 5 6 8 7 6 9 9 6 8 6 1 3 3 3 1 1 2 2 3 1 3 3 3 2 2 3 3 3 5 5 9 11 8 7 10 9 7 7 9 8 5 5 6 6 6 7 6 4 5 5 1 6 4 2 2 2 2 3 5 4 3 4 4 3 3 3 5 7 6 6 5 5 6 7 7 8 9 7 4 3 4 3 3
3 4 4 5 6 6 8 7 6 9 8 7 10 6 3 2 3 2 1 1 3 2 3 2 3 2 1 5 6 6 8 8 6 5 3 7 10 12 15 13 7 5 5 5 5 5 5 4 5 7 6 7 11 13 9 5 4 3 4 2 2 4 5 5 3 3 5 6 3 2 4 3 2 4 2 3 6 9 10 9 9 9 6 5 5 5 5
2 4 4 5 6 6 7 7 5 6 6 8 10 7 6 2 3 3 1 1 3 2 1 2 3 4 7 11 8 6 8 9 9 9 6 4 8 13 15 11 6 4 3 4 4 3 2 2 3 5 5 7 11 16 15 10 8 8 8 5 3 4 4 3 3 3 4 4 2 3 2 1 1 2 5 8 9 11 14 11 10 10 8 7 8 7 7
3 4 4 5 6 6 7 7 5 4 5 8 10 9 6 1 3 3 2 1 2 3 2 2 7 12 13 11 8 7 11 12 13 13 10 6 8 10 11 9 6 5 4 4 4 3 2 2 3 3 4 6 8 12 11 8 8 10 10 7 5 4 3 3 3 3 3 2 2 2 3 3 3 3 5 7 6 6 9 9 9 8 6 5 7 8 9
4 5 5 5 5 7 7 7 5 3 5 8 9 7 5 2 2 4 4 1 2 4 2 3 7 10 11 9 7 7 9 10 10 10 8 6 8 9 9 9 7 4 4 4 5 5 3 2 4 3 3 4 5 4 5 5 6 8 8 6 5 5 3 3 3 3 3 3 3 3 4 4 3 1 1 2 1 1 2 4 4 6 7 4 6 8 9
6 5 5 5 6 7 6 6 5 3 5 8 8 6 4 2 3 4 4 2 2 5 8 5 2 4 8 8 7 5 4 4 4 4 4 6 9 10 9 7 5 3 3 4 4 4 3 3 3 2 1 2 2 0 2 3 5 6 7 6 6 5 3 4 4 2 2 4 4 3 3 3 2 1 1 4 6 2 2 4 3 3 7 5 6 7 8
7 6 5 5 6 7 6 5 4 4 5 8 6 3 2 2 3 4 5 4 1 3 9 7 8 11 8 7 9 7 3 1 2 3 3 4 5 10 9 6 4 4 4 4 3 3 4 3 3 3 1 2 2 1 1 1 3 6 7 8 9 8 4 4 5 3 2 4 4 2 2 2 2 1 2 8 9 2 2 2 2 1 5 5 6 6 6
7 6 5 5 6 6 5 4 3 5 6 7 4 3 3 4 6 6 6 4 1 4 10 11 14 15 9 4 6 6 2 1 1 3 1 2 1 8 8 7 8 7 5 4 3 4 4 3 3 3 1 1 3 3 1 2 2 5 7 7 8 7 4 4 5 3 3 3 3 2 1 1 1 1 4 9 8 1 3 1 2 2 3 5 6 5 4
7 6 5 6 6 5 4 3 3 5 6 5 4 5 5 6 8 7 6 3 1 7 15 14 13 13 9 5 5 4 3 2 2 2 1 2 1 4 5 5 6 5 4 3 2 3 4 2 2 3 1 1 2 3 1 2 2 2 2 3 5 4 3 3 4 4 4 4 3 2 1 0 1 2 6 7 4 2 2 1 2 5 6 7 7 7 6
7 6 5 6 6 5 4 4 4 5 5 5 5 8 8 8 8 7 8 10 9 11 15 15 14 13 11 10 11 9 7 6 5 3 2 3 3 3 7 7 4 2 3 4 2 3 3 1 0 3 2 2 2 2 2 2 1 1 2 3 2 2 2 3 2 2 2 3 3 2 1 1 2 3 4 4 1 2 2 4 7 9 10 10 10 11 13
7 6 5 5 6 5 5 5 6 6 6 6 8 10 11 9 8 8 11 15 17 17 16 15 14 13 11 11 12 11 9 8 7 3 4 1 1 3 6 4 2 2 4 4 2 2 2 1 1 1 2 0 1 2 3 3 2 2 2 2 2 1 1 2 2 1 2 3 3 2 2 3 5 3 3 4 2 5 9 12 12 12 13 13 14 15 17
7 5 5 5 5 6 6 7 7 7 7 8 9 11 13 13 12 13 13 15 15 14 13 12 13 13 13 12 11 11 10 9 6 4 5 3 2 3 4 2 1 1 1 2 2 1 1 3 1 1 2 1 1 2 3 3 3 3 2 3 2 1 0 2 1 1 1 2 2 1 0 4 6 6 4 6 10 15 18 18 15 14 15 15 16 16 18
7 5 5 5 6 7 8 8 8 8 7 8 9 11 14 15 15 15 16 17 17 14 11 12 13 14 15 13 11 10 10 10 9 9 10 9 7 8 7 4 2 2 2 3 3 1 1 3 2 2 3 2 2 3 3 3 1 2 3 3 2 2 3 5 3 2 3 4 4 5 8 13 18 20 18 18 20 20 19 19 18 16 15 16 17 18 18
7 5 4 5 7 8 8 8 8 8 7 8 10 11 12 13 14 16 17 18 17 14 11 11 11 12 14 15 13 11 10 11 11 10 11 12 10 8 7 6 4 3 4 4 4 3 3 3 3 3 3 2 3 4 4 3 2 0 3 3 3 4 6 7 6 6 8 10 11 12 15 18 22 23 23 23 22 20 19 20 19 17 16 16 17 18 17
7 5 4 6 8 8 8 8 8 9 8 8 10 11 12 13 13 15 16 14 13 11 9 9 10 10 11 13 14 13 12 11 10 9 10 13 11 7 6 7 7 8 10 10 9 9 8 4 3 4 3 2 3 3 3 3 2 1 4 4 2 3 6 5 4 5 5 6 7 10 15 18 21 22 23 22 21 19 18 19 19 18 17 16 16 17 17
6 4 4 6 8 8 8 8 9 10 9 10 10 10 11 12 13 13 13 12 10 8 5 5 9 10 9 11 13 14 13 12 10 9 11 14 14 12 10 10 11 12 12 10 10 12 11 5 3 5 4 3 4 3 2 3 3 3 3 2 1 3 7 6 4 4 4 6 9 13 17 19 21 22 23 22 21 19 18 18 18 16 15 14 14 15 14
6 4 5 7 8 7 8 8 10 11 11 10 10 9 10 11 10 9 11 13 11 8 4 3 8 12 11 11 13 13 13 13 11 10 10 10 11 12 12 12 12 12 13 14 16 17 13 6 3 4 3 4 5 3 2 3 4 3 3 2 4 7 6 5 6 8 7 7 11 14 14 13 15 19 22 23 23 22 20 19 18 17 16 15 14 14 14
6 5 5 7 7 7 7 9 11 13 13 11 10 9 10 10 9 10 14 13 9 5 2 3 9 13 13 13 13 12 12 12 12 12 11 9 9 10 10 11 12 15 20 22 22 20 15 8 5 5 6 9 10 7 5 6 6 4 3 4 7 8 6 6 9 8 5 6 11 13 10 8 11 18 22 22 22 22 21 20 18 18 17 16 16 15 16
6 6 6 7 7 7 8 9 12 15 15 13 11 10 10 10 10 11 13 10 6 6 7 8 11 13 13 13 12 10 10 12 14 15 14 14 15 15 15 16 19 22 23 22 17 13 9 6 6 7 8 10 9 7 7 7 6 4 3 4 8 10 9 7 6 6 9 14 18 17 14 14 18 22 23 21 21 20 20 19 18 17 17 18 18 17 16
7 7 8 8 8 8 10 9 10 13 14 13 11 10 10 11 11 10 10 10 11 15 15 13 11 9 8 11 14 14 14 16 17 18 18 19 21 21 22 23 24 24 24 22 17 11 8 8 10 9 8 7 6 4 4 5 3 3 5 9 13 15 14 13 13 14 17 21 22 20 20 21 22 23 23 21 19 19 19 18 17 16 16 17 17 18 18
8 8 9 10 9 10 10 9 8 9 10 10 11 9 8 9 10 11 12 14 16 16 14 10 7 6 8 13 17 18 17 17 17 19 21 22 24 25 25 25 25 24 25 23 17 11 9 9 10 10 9 9 6 3 2 4 3 3 8 17 20 19 19 21 22 21 21 22 22 21 22 23 23 23 22 20 18 17 17 16 15 15 15 14 14 15 15
7 8 10 10 10 11 11 9 8 7 7 9 10 7 5 5 8 11 14 15 16 16 13 9 6 5 8 13 16 17 18 18 19 21 21 22 23 24 23 23 23 24 24 23 19 13 9 8 8 8 10 13 11 4 2 5 4 3 10 22 26 25 24 24 24 24 24 24 22 21 21 23 24 22 20 19 17 15 15 14 14 13 13 12 12 11 11
7 8 10 10 11 11 11 10 8 5 5 7 8 7 7 7 8 11 14 14 14 15 12 8 4 2 3 6 10 13 17 20 21 22 22 21 22 23 23 23 23 22 22 20 15 9 8 12 14 12 13 16 13 5 3 5 4 6 15 25 28 28 28 26 25 26 25 24 23 22 22 23 24 21 20 19 17 15 15 15 14 13 13 12 10 9 9
7 8 9 10 11 12 11 10 7 5 5 7 9 10 10 9 10 12 14 14 13 13 10 5 2 1 1 3 7 10 12 14 17 18 17 17 18 20 21 21 20 19 18 14 9 6 10 16 16 13 13 15 12 5 3 4 7 14 23 29 29 28 28 26 25 24 22 21 21 20 19 21 22 21 20 20 19 17 16 15 14 14 13 12 11 9 8
7 8 10 11 12 12 12 10 7 5 6 8 10 11 11 9 10 12 13 12 12 11 6 3 2 2 1 1 4 5 7 10 12 12 10 12 16 18 17 17 15 14 12 12 11 10 12 15 14 10 10 11 10 6 3 5 12 21 26 27 27 27 26 24 22 20 20 20 19 18 19 20 21 20 20 21 20 18 16 14 14 15 14 12 10 9 8
8 9 10 11 13 13 12 9 6 5 6 7 9 12 11 9 9 10 9 9 9 6 3 3 3 3 2 2 2 3 6 9 11 10 9 12 15 15 12 11 9 7 8 11 12 9 8 11 12 8 5 6 6 3 2 8 17 23 25 24 26 27 24 22 21 21 21 20 19 18 18 19 18 18 18 18 17 15 15 15 14 13 13 12 9 8 7
9 11 12 13 14 13 11 8 6 5 6 6 8 11 10 8 8 7 6 6 6 4 4 5 4 2 3 3 2 4 7 8 8 9 10 9 9 11 10 8 6 5 7 8 7 5 5 9 8 4 2 3 3 3 10 17 21 22 23 24 25 24 23 22 23 22 21 20 19 19 18 17 17 16 16 14 12 11 12 13 11 10 10 11 9 8 8
12 13 14 14 13 11 9 6 5 5 5 6 9 11 10 7 6 5 5 5 5 5 6 6 3 3 5 4 3 4 5 5 5 6 5 4 6 8 9 6 4 4 6 5 4 5 8 9 6 3 2 2 5 11 18 21 22 23 25 24 23 22 21 20 21 22 22 21 19 19 18 17 16 15 14 13 10 8 8 10 9 7 7 7 7 6 6
13 13 12 10 9 9 7 5 4 5 7 9 11 10 7 5 4 3 3 3 3 4 6 5 3 5 6 5 4 4 4 3 3 3 3 3 5 5 5 4 3 2 3 3 3 7 9 7 4 3 2 4 12 20 22 21 21 24 24 24 23 22 19 18 19 21 23 22 21 21 20 18 16 16 15 13 11 9 9 9 7 5 5 6 6 6 6
10 9 8 7 6 5 4 3 5 7 9 10 10 7 4 3 3 1 1 2 1 2 3 3 4 8 10 6 4 3 5 5 4 3 2 2 2 1 2 3 2 2 3 2 2 5 5 2 2 4 3 2 10 20 23 22 21 21 20 20 20 19 18 17 17 18 19 20 20 21 20 18 18 17 15 12 12 11 10 9 7 6 5 4 4 6 7
8 8 7 6 5 4 5 7 8 7 7 7 6 4 3 2 0 1 0 1 1 1 1 4 6 10 13 12 7 5 6 6 5 4 4 2 2 3 3 2 2 3 3 0 1 5 5 2 2 3 1 2 9 19 22 20 19 19 18 17 16 15 15 17 17 16 16 16 16 16 16 17 18 17 15 13 13 12 11 10 8 7 6 6 4 3 4
6 6 5 5 5 7 9 9 6 4 4 4 4 2 1 0 1 1 1 2 0 1 1 5 6 6 9 12 10 6 5 7 8 8 6 2 2 4 3 1 2 3 1 1 4 5 4 2 3 2 5 10 16 21 21 20 19 18 18 17 16 15 16 17 18 18 18 18 17 17 18 18 17 15 14 12 11 11 11 11 9 7 7 6 6 5 3
6 6 6 7 10 10 9 6 4 3 3 3 2 0 0 0 0 1 1 1 2 0 2 4 7 8 10 12 10 7 6 6 7 6 4 1 2 4 3 1 1 2 1 4 6 4 3 3 3 2 9 17 22 22 21 20 18 17 16 16 16 17 17 18 19 18 18 18 19 19 17 16 14 13 11 10 9 9 11 11 9 7 6 6 5 4 4
7 7 8 9 9 7 4 2 2 2 2 2 1 1 0 1 1 0 1 1 1 3 5 7 11 12 11 9 8 8 7 6 5 4 3 2 2 2 3 2 1 2 3 5 5 3 2 3 3 6 15 23 25 22 20 19 17 16 16 15 15 16 17 17 18 17 15 15 15 15 13 13 12 11 9 9 9 9 8 7 5 4 4 3 4 3 2
7 7 7 5 4 3 1 1 2 2 1 0 1 2 1 1 1 1 1 1 3 5 7 10 12 11 7 5 6 6 6 5 4 4 3 2 2 2 2 1 1 2 4 3 2 2 2 2 4 13 23 27 25 23 22 20 19 19 18 16 15 14 14 14 14 14 12 11 11 10 9 9 10 9 8 7 7 6 6 6 4 3 2 4 4 4 2
5 4 4 2 2 2 1 1 2 1 1 2 2 3 3 3 4 3 3 5 8 9 10 13 16 13 8 6 5 4 3 3 4 2 1 2 2 2 1 2 1 2 3 2 1 3 2 2 5 18 27 28 27 27 24 21 21 20 18 16 15 13 12 12 12 10 9 9 10 9 8 8 8 6 5 5 5 4 5 5 4 2 1 3 4 5 4
5 4 4 2 1 1 1 1 0 1 2 3 4 5 6 7 7 6 5 8 12 14 15 18 19 15 9 5 4 2 3 4 3 1 1 3 2 0 1 2 2 2 2 0 2 3 3 5 11 24 30 31 32 30 27 23 22 19 17 15 14 13 12 11 10 9 9 11 11 9 7 7 7 6 6 6 5 4 4 4 3 1 1 1 2 4 4
5 4 3 2 1 1 0 1 3 4 4 5 8 9 10 10 9 7 7 11 15 17 18 18 18 14 9 6 4 2 2 3 2 2 2 3 1 1 1 2 1 1 2 3 4 4 4 8 19 29 35 35 34 31 29 26 22 19 17 16 16 16 15 14 13 13 13 12 11 9 7 7 8 8 7 6 5 5 5 5 3 1 1 2 2 3 3
5 4 2 1 1 2 2 3 5 6 7 9 9 9 11 11 10 9 9 14 18 20 19 18 15 10 5 4 4 2 2 3 3 1 1 2 2 1 2 2 1 2 2 4 5 4 6 17 27 34 36 37 35 33 30 27 23 22 21 19 17 16 15 14 13 14 13 11 10 8 7 7 7 5 4 4 4 4 5 4 2 2 1 1 1 1 1
4 4 2 2 2 3 5 5 5 6 10 12 12 12 13 12 9 10 14 18 21 21 20 17 13 7 2 1 3 2 2 2 2 0 2 2 2 1 1 1 2 3 2 3 3 6 16 29 34 35 36 37 35 33 31 28 24 24 24 21 18 16 14 12 12 13 13 11 9 6 5 5 5 4 3 3 2 1 3 3 3 2 1 1 2 2 2
3 3 4 3 2 2 3 2 2 4 8 6 4 9 11 13 15 17 20 22 22 20 16 11 8 5 2 2 3 2 1 1 2 2 2 1 1 1 2 2 3 4 4 5 6 14 27 35 35 35 37 38 35 32 30 28 25 24 23 21 19 16 14 12 12 11 11 10 8 6 5 6 5 4 3 3 1 1 3 4 4 3 2 2 2 3 3
2 3 5 5 5 5 5 3 3 5 4 4 13 18 19 19 17 16 19 22 21 15 8 5 4 3 3 2 1 1 1 1 2 2 1 2 2 3 3 3 5 5 6 7 13 24 34 36 36 37 39 37 34 32 30 27 24 23 22 20 19 18 16 14 12 10 9 9 8 7 5 5 4 4 4 3 2 2 3 5 4 4 2 1 1 1 1
3 3 4 6 8 8 8 8 9 8 4 10 15 17 18 19 18 17 19 20 15 9 6 5 4 3 2 1 2 2 2 2 1 1 1 2 2 3 4 6 7 9 11 15 21 30 35 36 36 37 37 35 32 31 28 25 24 24 22 21 20 19 17 14 12 10 9 9 9 7 4 4 4 6 6 5 3 3 4 6 5 4 2 2 2 2 1
Wind_Direction
338 345 338 321 315 324 343 353 4 18 26 209 188 154 49 40 104 126 154 165 157 140 127 307 231 240 281 279 280 278 275 288 309 340 9 20 41 28 23 48 57 50 23 358 40 73 67 56 83 104 77 57 27 1 80 82 64 62 75 322 343 48 84 97 79 6 80 76 62 48 34 48 70 40 13 29 7 81 133 168 178 90 43 56 88 87 261
341 346 333 316 318 337 352 3 4 8 26 38 193 163 65 69 112 137 161 171 174 151 125 200 226 259 270 263 271 270 258 261 330 1 4 3 32 63 23 33 54 42 35 30 37 59 79 68 78 99 99 53 32 50 67 76 66 55 90 233 312 42 61 96 99 86 42 21 19 22 13 23 63 23 351 359 357 17 95 120 79 69 21 108 118 139 237
351 339 323 319 340 349 351 7 0 355 31 70 176 155 80 84 109 151 167 178 194 215 199 207 253 261 274 262 258 267 259 261 36 41 21 5 31 105 18 21 66 55 48 50 34 40 80 97 34 70 87 74 49 56 64 70 73 65 60 68 121 92 69 104 125 159 174 157 189 241 331 20 50 21 4 4 2 13 66 110 66 76 26 67 103 155 156
348 328 322 336 355 348 350 2 355 354 55 130 160 147 94 92 144 141 164 182 202 233 254 273 278 246 277 274 256 300 339 1 29 40 34 6 21 65 26 17 50 47 51 67 45 35 55 77 69 53 65 67 2 42 63 67 69 66 50 42 77 92 54 63 92 110 161 168 187 217 119 79 71 32 20 14 360 3 67 99 94 138 125 39 40 131 118
337 323 325 351 357 349 354 0 354 345 80 143 145 131 103 105 143 111 138 190 209 244 262 264 248 247 288 289 275 346 359 314 16 37 35 13 23 45 32 26 41 41 55 81 61 42 43 52 65 48 48 90 6 43 68 64 61 67 44 28 63 95 45 26 61 70 91 112 85 71 80 81 83 65 38 28 21 26 54 69 104 143 119 72 74 105 100
333 325 334 2 1 356 358 2 356 349 130 142 133 101 93 73 329 7 87 201 200 225 259 252 238 258 271 274 291 359 28 29 26 11 10 22 31 43 22 18 31 44 81 110 87 62 47 30 36 46 34 40 24 39 53 48 61 75 43 20 72 108 65 14 66 74 76 80 79 82 85 78 66 63 53 41 39 43 53 52 36 94 112 140 126 101 92
333 335 357 9 11 10 8 11 7 35 141 138 115 90 108 339 320 321 12 299 223 218 255 255 240 254 248 251 322 18 60 77 95 30 37 17 18 53 52 17 32 40 56 102 97 73 95 55 12 56 41 35 62 53 30 16 41 66 53 25 78 100 61 43 89 87 81 78 81 86 89 81 61 52 51 52 52 49 50 50 54 68 79 98 103 95 85
332 346 26 26 31 28 21 26 36 121 139 127 103 115 139 357 348 326 335 319 287 298 302 293 331 305 263 246 306 4 81 101 81 51 74 65 360 46 70 51 52 51 50 72 68 31 127 127 85 90 85 54 86 119 182 328 7 24 53 21 28 84 129 199 98 84 79 81 85 87 88 84 67 45 35 43 51 43 36 34 42 65 80 87 92 93 86
336 17 79 60 50 36 29 44 83 132 136 118 101 122 124 1 6 337 334 326 318 329 312 293 50 295 276 158 306 321 15 139 114 42 40 72 95 101 101 77 62 56 51 60 61 42 89 106 89 92 101 114 100 118 184 163 94 26 59 35 27 80 133 181 93 88 110 100 99 103 96 85 68 43 30 37 50 50 41 31 25 49 97 102 89 85 93
351 75 97 68 53 40 39 60 106 131 134 123 116 128 281 351 29 3 11 270 259 240 263 236 153 210 224 146 57 33 31 41 93 70 25 41 72 113 119 101 72 61 53 53 59 55 67 69 53 59 56 22 17 20 152 164 145 134 126 75 64 103 122 132 107 104 132 154 142 111 84 76 54 19 25 61 85 85 65 41 32 35 56 91 81 85 107
23 104 107 72 56 49 48 64 110 138 142 128 123 145 266 358 36 350 39 358 275 224 234 222 159 208 207 103 79 62 54 38 63 106 49 26 49 80 99 100 87 76 66 61 57 40 44 53 40 45 41 11 15 31 53 86 86 106 127 99 67 96 118 140 136 102 136 178 200 19 41 74 33 331 350 99 107 94 78 51 40 51 63 77 84 93 98
79 118 107 77 62 54 52 58 93 141 147 127 134 180 247 343 26 329 352 341 298 292 261 228 151 110 92 92 83 72 74 65 69 86 88 45 44 67 81 84 92 105 83 75 67 20 25 57 35 33 23 6 25 47 58 55 43 62 90 107 106 84 90 125 116 91 129 161 127 67 65 118 105 30 70 96 102 95 86 68 50 58 79 95 97 102 109
121 128 103 80 65 55 50 50 63 112 137 142 161 194 229 273 30 2 8 14 298 300 313 29 76 93 99 92 86 85 83 83 83 78 75 61 50 62 72 78 107 126 85 76 99 100 84 39 17 13 349 2 39 52 51 44 35 46 60 75 102 105 96 96 77 78 114 95 48 102 130 128 123 103 92 103 105 89 79 64 44 39 51 95 115 122 126
134 131 102 82 67 58 48 45 51 77 121 150 181 201 211 203 56 32 25 32 277 295 336 37 54 78 92 89 90 88 71 71 82 80 77 75 70 80 95 102 110 100 56 67 84 79 79 47 37 29 342 4 41 34 22 35 34 34 39 49 81 100 107 98 61 53 106 101 68 96 120 135 149 146 79 88 43 298 100 85 58 26 15 51 123 132 140
139 131 104 82 65 58 48 45 50 53 107 145 182 206 193 151 60 41 17 346 286 353 17 21 24 66 77 78 81 80 53 46 68 77 80 85 91 106 119 118 118 102 74 82 75 62 76 89 82 69 6 44 90 312 333 7 8 15 29 46 65 72 98 133 111 56 86 112 109 116 146 175 168 157 333 350 345 322 138 105 96 29 10 42 114 123 142
142 127 101 78 63 59 50 48 50 49 98 138 163 178 142 95 47 39 14 351 274 18 14 23 70 73 64 67 75 78 83 43 40 48 20 17 86 118 122 107 98 107 95 80 69 69 76 85 111 130 152 181 168 133 2 359 343 344 4 40 55 48 51 98 100 91 112 118 120 144 179 169 130 155 305 340 349 345 156 105 113 49 12 54 107 107 126
141 123 98 77 64 59 57 56 56 64 94 129 139 113 107 69 38 32 19 355 294 45 30 45 77 74 55 49 65 60 58 54 65 89 60 299 129 125 121 99 78 69 64 58 44 55 69 78 97 98 111 212 135 112 76 79 48 334 338 17 36 26 15 53 81 101 112 104 107 116 125 144 134 223 309 336 353 50 166 158 148 128 55 83 106 96 111
139 123 96 79 69 62 64 73 76 85 97 107 102 105 104 67 40 31 28 22 11 37 40 55 81 80 67 71 74 51 35 31 27 90 97 312 2 112 118 104 76 48 43 69 76 71 75 71 92 107 151 280 95 101 86 81 80 327 341 34 39 23 16 50 89 97 82 87 107 99 46 217 229 296 316 336 10 122 179 221 136 113 92 98 104 94 99
140 122 94 80 73 67 75 93 96 94 93 88 90 97 87 54 35 37 56 70 74 60 53 62 79 84 83 87 86 81 76 64 58 84 88 3 358 91 97 87 70 34 42 64 80 94 90 37 345 115 101 347 24 90 82 65 43 349 63 74 60 26 5 23 70 95 91 94 95 83 90 42 329 314 322 354 46 177 150 105 110 106 100 101 104 101 101
141 121 97 82 76 78 91 103 103 91 80 88 95 87 72 56 54 74 86 85 80 71 63 62 69 73 74 77 79 82 83 70 60 97 137 121 350 96 92 72 37 31 42 56 71 92 106 117 296 90 103 77 78 100 94 76 53 36 77 99 92 86 86 72 65 75 97 83 66 99 154 321 333 310 306 352 46 139 121 108 105 105 107 107 103 102 105
140 121 101 86 79 92 105 104 100 85 76 93 97 80 73 77 84 92 93 87 82 78 71 69 69 67 67 69 70 76 80 76 70 100 116 90 26 93 124 186 218 98 103 128 111 85 136 143 129 70 106 126 34 95 126 115 57 25 69 113 94 341 171 153 199 286 101 99 81 117 48 5 44 100 108 79 106 125 122 114 109 108 111 111 106 106 110
139 122 104 91 90 104 111 103 92 78 76 95 95 81 81 86 89 96 99 94 93 97 94 83 76 70 68 70 70 70 73 78 86 97 102 96 83 94 118 141 126 125 172 150 118 109 119 120 124 105 100 86 64 85 102 114 78 347 18 65 53 43 95 105 95 69 77 86 97 97 78 70 82 99 106 107 112 117 116 113 112 112 112 111 110 113 115
139 125 104 97 106 113 111 101 84 71 77 97 93 86 93 99 101 107 108 101 100 105 103 94 87 78 71 71 75 77 77 87 93 95 104 109 96 83 92 96 87 104 114 104 118 149 136 120 134 126 104 97 110 90 62 75 118 53 39 64 83 105 105 93 91 100 86 75 84 97 92 87 92 101 107 111 113 114 115 114 114 114 116 117 117 119 121
141 132 108 107 118 118 110 99 84 71 76 94 95 95 102 107 113 116 111 104 103 103 95 87 85 82 73 70 75 78 79 92 103 94 96 107 107 95 91 93 100 110 100 90 97 109 110 111 116 106 98 90 104 97 73 86 120 113 95 97 62 66 83 86 109 135 108 82 96 108 105 105 106 107 109 111 114 118 120 118 117 119 120 120 120 122 124
145 134 118 120 125 120 109 101 89 81 87 98 105 113 114 111 116 121 117 115 114 107 98 81 77 83 84 73 71 73 74 84 98 97 93 99 104 109 112 109 111 109 96 90 99 99 94 86 85 94 89 63 69 85 87 101 147 153 119 122 204 105 99 93 92 95 92 109 125 119 113 116 117 115 116 118 119 122 121 117 117 120 123 125 127 126 125
153 138 128 131 131 122 114 108 95 90 98 108 113 118 114 108 114 122 125 128 120 103 98 89 81 87 93 81 72 74 76 79 83 87 92 94 97 107 113 112 111 105 94 97 104 97 84 71 72 82 66 54 71 94 101 95 110 108 80 96 142 134 122 106 107 104 95 109 126 120 108 107 114 119 123 126 125 124 121 117 116 117 119 125 126 118 112
158 145 138 141 141 131 124 117 103 97 102 111 115 117 112 106 113 130 137 138 126 96 84 87 82 84 83 77 75 79 83 82 78 78 86 96 104 113 118 116 111 103 95 96 97 91 81 73 69 73 85 90 84 76 75 86 89 79 64 86 107 113 113 112 117 120 118 140 151 143 125 120 135 135 134 133 130 127 125 125 124 120 117 117 117 113 110
159 153 152 154 151 145 138 125 109 105 107 107 108 115 113 100 102 126 144 149 134 117 120 107 93 91 85 75 72 77 86 89 85 84 94 107 112 117 123 121 112 103 96 93 91 85 80 85 93 93 97 99 88 64 58 72 74 61 54 80 107 124 140 142 127 123 140 154 160 151 134 137 148 144 138 136 133 129 129 130 127 122 118 115 114 116 117
161 159 164 165 160 153 149 135 118 116 116 111 111 118 112 95 92 114 142 145 126 116 111 99 90 93 87 76 74 82 94 96 90 88 97 107 109 111 114 111 106 101 96 93 91 85 81 88 96 98 98 103 102 77 61 64 52 46 84 107 123 132 136 134 126 124 138 152 153 140 130 139 148 145 140 137 134 130 131 132 129 126 125 121 117 117 119
161 160 165 168 164 157 153 144 132 130 128 129 134 131 111 94 91 104 125 134 128 120 111 98 92 92 86 84 84 86 93 97 92 91 97 102 103 106 107 104 101 100 98 92 86 83 80 79 81 83 91 102 102 86 90 98 67 46 95 111 120 125 125 128 129 131 139 148 144 134 133 142 146 144 141 141 137 130 130 133 131 128 127 129 128 126 125
159 158 162 164 161 159 157 150 144 139 139 148 152 144 117 99 95 103 119 133 134 126 112 95 89 91 89 89 85 83 90 98 96 94 96 98 98 102 104 100 97 97 95 90 84 79 76 77 77 73 81 94 95 83 105 107 86 60 101 109 114 119 121 125 130 133 138 143 143 140 143 149 152 153 154 153 146 133 127 130 131 126 123 127 131 130 128
156 156 158 159 158 158 158 155 145 124 120 147 156 147 129 116 103 109 126 139 141 133 117 94 78 77 76 79 81 87 97 103 100 97 95 94 93 96 98 95 91 91 92 88 78 67 70 83 85 78 80 92 97 86 62 86 102 128 118 114 116 121 124 126 129 129 130 134 135 136 143 153 157 157 155 156 154 145 139 139 141 138 134 134 137 138 139
153 153 152 154 157 157 156 153 141 102 93 130 148 146 135 119 109 119 134 142 143 135 120 93 72 80 64 82 94 100 102 102 99 94 89 89 93 94 92 90 87 86 86 82 72 75 91 91 87 81 83 90 94 88 65 93 129 133 125 122 124 126 126 127 128 128 129 133 131 127 132 144 147 143 143 153 162 161 155 151 153 157 155 153 156 159 156
150 150 146 148 152 151 149 145 132 100 98 120 138 146 139 118 110 122 135 143 140 132 116 92 87 84 55 70 92 101 103 102 101 94 83 92 103 101 93 88 85 80 79 85 90 93 94 94 92 88 85 86 88 85 90 136 139 134 129 130 133 134 133 134 134 134 136 137 133 125 125 133 140 140 143 153 160 159 155 152 154 158 157 156 159 158 152
144 143 140 140 142 142 142 137 123 110 112 119 136 147 140 116 108 121 137 147 145 134 116 116 113 98 90 79 83 120 122 113 108 106 106 108 109 104 97 91 84 81 91 99 97 90 91 104 106 98 84 83 79 74 153 156 145 138 135 137 140 141 141 141 141 140 139 138 136 134 133 137 142 144 146 150 151 151 152 156 157 157 156 158 159 155 152
138 135 131 132 135 138 139 133 121 122 120 118 135 145 140 119 107 108 113 124 127 121 121 125 126 135 133 117 124 150 140 124 113 114 120 119 108 103 104 98 83 91 102 96 85 79 99 112 110 87 49 71 79 143 158 152 147 146 146 148 150 150 148 147 146 145 142 142 143 145 144 144 143 142 140 140 137 134 141 150 153 153 157 160 160 157 158
132 128 124 124 126 128 126 116 113 126 130 130 141 146 141 128 116 110 102 98 97 115 135 137 145 171 154 134 130 143 144 141 129 119 116 112 98 96 100 101 96 99 91 70 61 83 92 94 90 62 22 69 118 138 146 149 153 155 153 153 153 150 146 148 151 150 148 149 153 156 154 150 149 151 151 152 154 154 150 149 146 142 147 156 162 165 166
128 125 122 122 123 120 113 105 113 132 139 141 143 143 135 119 112 112 101 75 71 113 141 147 165 161 141 118 107 132 150 146 121 105 91 95 95 86 86 93 100 97 79 65 82 90 81 68 67 66 45 93 117 121 124 130 142 151 153 152 152 149 146 150 157 158 155 155 162 169 168 162 158 158 158 158 162 166 160 153 152 159 168 176 183 183 176
125 124 122 122 119 111 107 123 138 139 137 138 140 137 113 85 86 69 20 14 48 115 139 160 172 157 142 120 89 119 139 127 101 84 76 87 99 132 121 98 88 90 91 100 121 100 83 36 43 71 46 70 116 120 119 115 118 128 138 143 148 154 160 163 165 166 165 167 174 182 182 173 162 155 149 148 151 154 158 161 159 155 154 156 170 183 181
128 125 116 110 109 113 128 141 144 137 127 124 128 123 90 60 100 205 34 25 5 3 138 154 158 151 144 138 124 116 134 136 127 126 125 105 108 130 118 100 116 109 90 65 139 110 105 103 82 88 173 194 132 128 129 123 116 118 124 126 129 142 155 157 153 150 151 158 170 178 175 166 157 148 142 142 146 150 158 163 153 134 126 114 99 124 166
127 121 110 104 111 122 130 134 133 119 102 101 103 109 98 333 248 202 102 86 272 289 118 129 135 136 136 133 123 111 126 136 131 127 122 99 98 112 103 106 137 107 65 212 153 113 92 93 90 118 197 170 140 132 134 132 124 123 125 123 122 129 140 142 138 136 136 134 134 140 145 146 145 142 138 139 139 139 147 150 141 127 126 119 102 97 114
130 124 116 112 113 118 123 121 99 75 85 88 66 13 213 222 207 129 110 164 196 229 61 106 125 126 122 118 111 108 119 126 122 120 114 86 118 118 103 76 104 81 140 171 142 96 67 114 120 203 191 163 145 139 140 138 133 132 132 129 126 129 136 136 133 135 137 131 125 126 130 131 132 134 137 137 134 132 135 138 133 126 125 121 116 119 125
128 118 112 111 112 114 112 72 38 44 63 64 53 50 4 347 7 130 237 254 158 114 105 116 124 123 119 113 105 101 107 112 108 99 101 124 143 110 71 52 74 121 155 150 120 84 126 155 175 198 180 163 153 149 147 143 140 142 144 141 134 130 131 132 130 130 133 133 128 125 125 125 126 129 133 137 137 136 138 141 137 136 145 155 155 152 145
129 116 112 111 103 97 83 14 25 53 62 61 120 137 164 241 245 186 171 161 146 140 140 142 139 131 122 113 102 94 96 103 91 77 91 127 105 71 76 141 197 150 139 126 92 121 181 208 190 175 169 163 157 155 151 144 141 142 144 145 143 137 133 134 133 129 128 134 137 131 126 125 127 127 129 137 141 143 148 151 143 138 184 199 180 155 137
133 115 105 78 28 43 75 320 332 2 207 221 191 155 156 181 199 196 177 164 158 150 144 144 141 130 112 103 106 97 86 91 84 72 134 118 61 43 145 185 164 102 112 114 129 153 195 268 173 166 167 164 159 158 157 152 147 146 144 143 144 145 141 139 136 131 129 135 138 134 134 141 144 142 145 154 156 156 163 163 152 127 207 205 172 151 141
131 117 99 77 352 325 70 76 323 202 188 199 202 195 191 194 198 195 177 167 165 157 148 144 139 127 109 97 102 97 93 97 90 35 79 93 78 283 181 129 86 79 88 114 179 183 222 221 174 166 167 165 160 161 164 161 157 157 154 149 151 156 153 148 149 148 144 142 139 137 143 153 155 155 161 163 162 167 178 176 164 120 9 284 197 180 177
140 132 99 77 318 295 345 201 228 241 241 229 223 216 207 203 209 216 201 181 169 159 148 141 135 128 117 110 111 109 94 91 73 357 27 85 117 263 37 72 109 164 142 175 210 232 238 195 173 167 166 165 162 163 166 166 165 164 158 152 153 155 152 149 151 152 151 153 153 149 144 141 139 144 153 153 146 149 156 159 160 161 341 324 268 226 222
150 152 140 125 178 188 207 233 248 256 254 249 249 245 236 232 240 240 211 179 162 152 146 139 131 121 108 100 106 101 58 72 77 9 15 84 106 3 26 50 257 252 169 179 208 225 188 174 170 168 167 167 166 165 165 165 165 165 163 160 160 158 154 150 150 150 154 160 159 150 147 149 149 147 140 119 115 142 165 185 219 254 298 333 145 160 270
165 170 200 249 230 219 238 254 266 273 272 272 269 258 243 230 208 182 171 164 156 151 148 140 129 121 112 85 90 75 42 61 99 30 23 66 101 166 128 141 227 252 226 208 220 191 173 170 168 168 169 169 167 167 168 168 166 166 168 169 169 168 167 164 159 158 162 165 160 152 157 167 165 155 121 83 66 182 198 205 220 221 213 189 179 191 251
182 208 245 252 234 249 274 264 244 284 294 283 198 172 162 146 137 145 156 157 151 144 138 128 117 114 111 76 73 58 319 231 129 98 79 115 176 161 143 170 222 229 221 223 203 174 167 166 165 166 168 169 169 169 170 170 168 168 170 170 169 167 167 167 165 165 168 170 171 176 176 169 165 158 126 90 56 205 178 168 177 193 214 256 258 258 269
201 251 255 239 240 272 291 278 262 286 291 150 139 133 124 117 122 140 154 153 146 138 130 120 108 92 70 61 92 131 178 148 115 109 171 216 177 134 152 212 227 215 203 196 176 165 163 165 167 166 167 170 173 173 171 169 169 170 169 168 166 163 164 166 169 171 173 175 178 181 178 172 181 189 170 148 157 194 174 160 165 184 210 251 284 304 325
217 253 272 266 264 272 279 279 280 279 230 156 140 127 117 117 124 139 151 153 149 140 125 115 105 90 84 141 162 138 105 97 114 143 201 211 186 166 188 205 202 190 178 167 159 159 162 167 169 170 170 172 173 171 168 169 170 169 166 163 163 164 165 166 164 163 173 181 179 170 161 158 165 169 170 169 179 186 164 152 155 174 196 170 131 111 99